ATLAS 5 CENTAUR R/B, 49819

Orbit data source: Space-Track

ATLAS 5 CENTAUR R/B, 49819 is space debris in GEO originally from a launch on Tue, 07 Dec 2021 UTC launched from the Air Force Eastern Test Range (AFETR). Debris objects in space refer to the collection of defunct objects orbiting the Earth. Examples of debris include non-operational satellites, rocket bodies, and fragments generated from explosions, collisions, or faulty payload assembly.

Loading next visibility...
Identifier
49819, 2021-118C
Orbit
GEO
Country
Flag of USUS
Related business
Flag of USUnited Launch Alliance/Lockheed Martin (US)
Manufacturer
ULA Decatur
Mission
Spacecraft
Bus & Motor
CENTAUR SEC, RL10C-1
Mass
~2,020 kg wet, 2,020 kg dry
Launch date (UTC)
2021-12-07 (5 years ago)
Launch vehicle
Unknown
Launch site
Air Force Eastern Test Range (AFETR)
Object type
Payload
Rocket body
Debris
Shape & HBR
Cyl + 1 Nozzle, 6.1 m
Radar Cross Section
32.260 m², Large (>1 m²)

Expand to show TLE details & history
Last TLE update: 1 day ago

TLE from 1 day ago
0 ATLAS 5 CENTAUR R/B
1 49819U 21118C   26257.39540736 -.00000179  00000-0  00000-0 0  9991
2 49819   4.7543  77.4113 0284179 208.5690 150.1557  0.94820331 16539
Epoch: 2026-09-14T09:29Z
TLE epoch observation values (Epoch: 2026-09-14T09:29:23.195Z)
Latitude
-0°
Longitude
-58.02369°
Altitude
38,467.91 km
Speed
2.944 km/s
True Right ascension
05h 10m 47s
True Declination
0° 00' 00"
Sunlit
Object was in daylight at epoch
Visualization orbit readout
Latitude
Unknown
Longitude
Unknown
Altitude
Unknown
Speed
Unknown
Apparent Right ascension
Unknown
Apparent Declination
Unknown
Sunlit
N/A
Visualization observer readout
Local Sidereal Time
09:01:48
Azimuth
Unknown
Elevation
Unknown
Doppler factor
Unknown
Orbital elements
Apogee altitude
38,632.378 km
Perigee altitude
36,144.86 km
Semi-major axis
43,766.756 km
Eccentricity
0.02842
Inclination
4.7543°
RAAN
77.4113°
Arg. of periapsis
208.569°
True anomaly
151.72756°
Mean anomaly
150.1557°
Eccentric anomaly
150.94641°
Mean motion
0.23704 °/min
Orbital period
1,518.71 mins
BSTAR
0
Loading maneuver chart data...
Computing Atmospheric mass density...
Loading historical data...
Loading historical data...
Loading historical data...
Loading historical data...
Loading historical data...
Loading historical data...
Loading historical data...
Other satellites on launch #118 in the year 2021 (2021-12-07 UTC)

Documentation

Showing up to 5 results
|